Flag for Germany Weather past 2 weeks in Heidenheim an der Brenz, Baden-Württemberg, Germany

Now
37 °F

Sprinkles. Low clouds.


Feels Like: 28 °F
Forecast: 34 / 39 °F
Wind: 15 mph from Northwest

Location: Stoetten

Current Time: Mar 31, 2015 at 7:25:43 PM

Latest Report: Mar 31, 2015 at 7:00 PM


Visibility: 37 mi

Pressure: 29.85 "Hg

Humidity: 92%

Dew point: 35 °F

Location of Heidenheim an der BrenzLocation

Historic Weather in Heidenheim an der Brenz — Graph

°F

Heidenheim an der Brenz temperature yesterday

Maximum temperature yesterday: 46 °F (at 12:00 AM)
Minimum temperature yesterday: 35 °F (at 1:00 PM)
Average temperature yesterday: 40 °F

Past Weeks' High & Low Weather Summary

 TemperatureHumidityPressure
High59 °F (Mar 25, 2:00 PM)100% (Mar 26, 3:00 AM)30.29 "Hg (Mar 26, 3:00 AM)
Low30 °F (Mar 22, 7:00 AM)31% (Mar 25, 3:00 PM)29.50 "Hg (Mar 31, 9:00 AM)
Average43 °F73%29.99 "Hg
* Reported Mar 16 5:00 PM — Mar 31 6:00 PM, Heidenheim an der Brenz, Weather by CustomWeather, © 2015

Note: Actual official high and low records may vary slightly from our data, if they occured in-between our weather recording intervals... More about our weather records

Advertising

Heidenheim an der Brenz weather history for previous 24 hours

 ConditionsComfort  
Time TempWeatherWind HumidityBarometerVisibility
6:00 PM
Tue, Mar 31
44 °FPartly sunny.20 mph73%29.75 "Hg37 mi
5:00 PM42 °FSprinkles. Overcast.22 mph82%29.73 "Hg34 mi
4:00 PM43 °FSprinkles. Overcast.17 mph93%29.69 "Hg7 mi
3:00 PM46 °FSprinkles. Overcast.23 mph79%29.63 "Hg7 mi
2:00 PM46 °FSprinkles. Overcast.22 mph83%29.64 "Hg47 mi
1:00 PM49 °FOvercast.24 mph71%29.57 "Hg28 mi
12:00 PM49 °FOvercast.23 mph82%29.57 "Hg19 mi
11:00 AM47 °FLight rain. Overcast.25 mph85%29.57 "Hg7 mi
10:00 AM48 °FLight rain. Overcast.26 mph83%29.55 "Hg7 mi
9:00 AM51 °FOvercast.24 mph66%29.50 "Hg47 mi
8:00 AM51 °FOvercast.22 mph74%29.54 "Hg47 mi
7:00 AM50 °FOvercast.23 mph76%29.55 "Hg47 mi
6:00 AM47 °FOvercast.13 mph85%29.61 "Hg47 mi
5:00 AM44 °FOvercast.12 mph85%29.65 "Hg43 mi
4:00 AM40 °FOvercast.9 mph87%29.75 "Hg28 mi
3:00 AM37 °FOvercast.8 mph89%29.83 "Hg19 mi
2:00 AM39 °FLight rain. Overcast.9 mph76%29.88 "Hg16 mi
1:00 AM37 °FOvercast.7 mph79%29.92 "Hg28 mi
12:00 AM37 °FPassing clouds.8 mph75%29.96 "Hg31 mi
11:00 PM
Mon, Mar 30
37 °FPassing clouds.8 mph76%29.97 "Hg28 mi
10:00 PM39 °FPassing clouds.12 mph70%29.95 "Hg34 mi
9:00 PM40 °FPassing clouds.12 mph66%29.93 "Hg47 mi
8:00 PM40 °FOvercast.14 mph66%29.90 "Hg47 mi
7:00 PM40 °FSleet. Overcast.13 mph74%29.87 "Hg47 mi
Weather by CustomWeather, © 2015

See weather overviewHow to use our weather pages